This is the latest recevied weather packets stored in our database for station/object YO6FNF-10. If no packets are shown the sender has not sent any weather packets the latest 10 day(s).
| Time | Temp. | Humidity | Pressure | Rain* | Wind** | Luminosity | Snow |
|---|---|---|---|---|---|---|---|
| 1777778034 | 0.56° C | 81% | 1024.5 hPa | - | - | - | - |
| 1777777134 | 0° C | 82% | 1024.4 hPa | - | - | - | - |
| 1777776234 | 0.56° C | 80% | 1024.3 hPa | - | - | - | - |
| 1777775334 | 0.56° C | 81% | 1024.2 hPa | - | - | - | - |
| 1777774434 | 1.11° C | 79% | 1024.2 hPa | - | - | - | - |
| 1777773533 | 1.11° C | 80% | 1024.2 hPa | - | - | - | - |
| 1777772633 | 0.56° C | 81% | 1024.2 hPa | - | - | - | - |
| 1777771733 | 0.56° C | 81% | 1024.2 hPa | - | - | - | - |
| 1777770833 | 0.56° C | 80% | 1024.3 hPa | - | - | - | - |
| 1777769933 | 0.56° C | 79% | 1024.2 hPa | - | - | - | - |
| 1777769033 | 0.56° C | 79% | 1024.2 hPa | - | - | - | - |
| 1777768132 | 0.56° C | 78% | 1024.2 hPa | - | - | - | - |
| 1777767232 | 0.56° C | 78% | 1024.3 hPa | - | - | - | - |
| 1777766332 | 0.56° C | 75% | 1024.3 hPa | - | - | - | - |
| 1777765432 | 0.56° C | 76% | 1024.3 hPa | - | - | - | - |
| 1777764532 | 1.11° C | 76% | 1024.4 hPa | - | - | - | - |
| 1777763632 | 1.11° C | 77% | 1024.4 hPa | - | - | - | - |
| 1777762731 | 1.67° C | 76% | 1024.5 hPa | - | - | - | - |
| 1777761831 | 1.67° C | 78% | 1024.5 hPa | - | - | - | - |
| 1777760931 | 1.67° C | 76% | 1024.5 hPa | - | - | - | - |
| 1777760031 | 2.22° C | 76% | 1024.6 hPa | - | - | - | - |
| 1777759131 | 2.22° C | 75% | 1024.8 hPa | - | - | - | - |
| 1777758230 | 2.78° C | 76% | 1024.7 hPa | - | - | - | - |
| 1777757330 | 2.78° C | 76% | 1024.6 hPa | - | - | - | - |
| 1777756430 | 3.33° C | 75% | 1024.7 hPa | - | - | - | - |
* Rain since midnight (hover to see other rain measurements)
** Current wind speed in m/s (hover to see current wind gust speed)